BER1010 LFPG-LIME

Flight info

Callsign BER1010
Flight time 1h 12m
Altitude 35000
Route OKASI DCT LUSAR DCT ODINA
Aircraft B738/M-SDE2E3FGHIRWXY/LB1

Departure

Time 2026-05-09 04:50
Airport Charles de Gaulle International Airport (LFPG)

Arrival

Time 2026-05-09 06:03
Airport Il Caravaggio International Airport (LIME)
Time Latitude Longitude Altitude Speed Heading
2026-05-09 04:22 49.01718 2.54095 353 ft 0 kts 209°
2026-05-09 04:39 49.01735 2.54108 361 ft 4 kts 205°
2026-05-09 04:39 49.01759 2.54125 355 ft 4 kts 202°
2026-05-09 04:39 49.01784 2.54141 360 ft 3 kts 208°
2026-05-09 04:40 49.01801 2.54157 357 ft 4 kts 238°
2026-05-09 04:40 49.01810 2.54189 360 ft 4 kts 255°
2026-05-09 04:40 49.01812 2.54229 359 ft 4 kts 276°
2026-05-09 04:40 49.01810 2.54262 357 ft 4 kts 277°
2026-05-09 04:41 49.01806 2.54303 357 ft 4 kts 282°
2026-05-09 04:41 49.01799 2.54342 357 ft 3 kts 285°
2026-05-09 04:41 49.01798 2.54349 361 ft 2 kts 285°
2026-05-09 04:46 49.01799 2.54342 357 ft 3 kts 285°
2026-05-09 04:47 49.01808 2.54272 355 ft 11 kts 280°
2026-05-09 04:47 49.01808 2.54107 356 ft 19 kts 264°
2026-05-09 04:47 49.01797 2.53883 353 ft 23 kts 265°
2026-05-09 04:47 49.01782 2.53628 353 ft 24 kts 265°
2026-05-09 04:48 49.01769 2.53383 355 ft 23 kts 264°
2026-05-09 04:48 49.01756 2.53144 361 ft 22 kts 266°
2026-05-09 04:48 49.01744 2.52911 362 ft 22 kts 265°
2026-05-09 04:48 49.01732 2.52685 355 ft 21 kts 265°
2026-05-09 04:49 49.01721 2.52466 357 ft 20 kts 271°
2026-05-09 04:49 49.01823 2.52358 353 ft 20 kts 356°
2026-05-09 04:49 49.01960 2.52343 353 ft 19 kts 356°
2026-05-09 04:49 49.02091 2.52354 361 ft 19 kts 31°
2026-05-09 04:50 49.02130 2.52534 355 ft 18 kts 85°
2026-05-09 04:50 49.02144 2.52801 355 ft 52 kts 85°
2026-05-09 04:50 49.02209 2.53921 358 ft 156 kts 86°
2026-05-09 04:50 49.02289 2.55825 1097 ft 191 kts 85°
2026-05-09 04:51 49.02403 2.57953 2016 ft 207 kts 86°
2026-05-09 04:51 49.02523 2.60209 2577 ft 226 kts 86°
2026-05-09 04:51 49.02658 2.62644 3348 ft 235 kts 85°
2026-05-09 04:51 49.02804 2.65240 3869 ft 256 kts 86°
2026-05-09 04:52 49.02954 2.68009 4762 ft 266 kts 86°
2026-05-09 04:52 49.03101 2.70840 5825 ft 270 kts 87°
2026-05-09 04:52 49.03249 2.73730 6803 ft 277 kts 87°
2026-05-09 04:52 49.03401 2.76686 7700 ft 284 kts 86°
2026-05-09 04:53 49.03557 2.79717 8586 ft 290 kts 86°
2026-05-09 04:53 49.03716 2.82814 9470 ft 296 kts 86°
2026-05-09 04:53 49.03877 2.85936 10282 ft 303 kts 86°
2026-05-09 04:53 49.04044 2.89245 10638 ft 326 kts 86°
2026-05-09 04:54 49.04150 2.92781 11105 ft 340 kts 95°
2026-05-09 04:54 49.03477 2.96215 11844 ft 340 kts 121°
2026-05-09 04:54 49.01956 2.98925 12679 ft 337 kts 145°
2026-05-09 04:54 48.99880 3.00517 13448 ft 335 kts 166°
2026-05-09 04:55 48.97571 3.00944 14139 ft 336 kts 180°
2026-05-09 04:55 48.95223 3.01021 14764 ft 340 kts 181°
2026-05-09 04:55 48.92881 3.00911 15332 ft 342 kts 192°
2026-05-09 04:55 48.90665 2.99643 15939 ft 342 kts 210°
2026-05-09 04:56 48.88602 2.97807 16556 ft 345 kts 212°
2026-05-09 04:56 48.86556 2.95870 17108 ft 349 kts 213°
2026-05-09 04:56 48.84489 2.93892 17665 ft 353 kts 213°
2026-05-09 04:56 48.82386 2.91894 18399 ft 359 kts 213°
2026-05-09 04:57 48.80255 2.89888 19142 ft 362 kts 212°
2026-05-09 04:57 48.78098 2.87873 19841 ft 366 kts 212°
2026-05-09 04:57 48.75913 2.85845 20492 ft 372 kts 212°
2026-05-09 04:57 48.73722 2.83819 21149 ft 376 kts 211°
2026-05-09 04:58 48.71472 2.81743 21827 ft 380 kts 211°
2026-05-09 04:58 48.69197 2.79649 22456 ft 386 kts 211°
2026-05-09 04:58 48.66892 2.77529 23080 ft 390 kts 211°
2026-05-09 04:58 48.64554 2.75381 23684 ft 395 kts 210°
2026-05-09 04:59 48.62192 2.73213 24207 ft 399 kts 211°
2026-05-09 04:59 48.59818 2.71036 24832 ft 399 kts 210°
2026-05-09 04:59 48.57444 2.68860 25419 ft 401 kts 210°
2026-05-09 04:59 48.55076 2.66693 25922 ft 405 kts 210°
2026-05-09 05:00 48.52659 2.64484 26432 ft 408 kts 210°
2026-05-09 05:00 48.50195 2.62340 26947 ft 410 kts 203°
2026-05-09 05:00 48.47453 2.61206 27406 ft 411 kts 184°
2026-05-09 05:00 48.44601 2.61235 27942 ft 411 kts 176°
2026-05-09 05:01 48.41737 2.61502 28437 ft 414 kts 175°
2026-05-09 05:01 48.38858 2.61786 28918 ft 416 kts 175°
2026-05-09 05:01 48.35962 2.62040 29409 ft 418 kts 175°
2026-05-09 05:01 48.33045 2.62263 29841 ft 421 kts 176°
2026-05-09 05:02 48.30149 2.62473 30228 ft 424 kts 175°
2026-05-09 05:02 48.27248 2.63237 30546 ft 425 kts 159°
2026-05-09 05:02 48.24579 2.65128 30946 ft 425 kts 152°
2026-05-09 05:02 48.21963 2.67208 31309 ft 427 kts 152°
2026-05-09 05:03 48.19333 2.69302 31627 ft 429 kts 152°
2026-05-09 05:03 48.16689 2.71374 32043 ft 429 kts 152°
2026-05-09 05:03 48.14029 2.73427 32403 ft 430 kts 152°
2026-05-09 05:03 48.11356 2.75470 32679 ft 433 kts 152°
2026-05-09 05:04 48.08706 2.77640 32935 ft 436 kts 145°
2026-05-09 05:04 48.06520 2.80674 33341 ft 434 kts 130°
2026-05-09 05:04 48.04599 2.84105 34051 ft 427 kts 130°
2026-05-09 05:04 48.02721 2.87498 34576 ft 422 kts 130°
2026-05-09 05:05 48.00852 2.90870 34935 ft 421 kts 131°
2026-05-09 05:05 47.97049 2.97663 34993 ft 430 kts 131°
2026-05-09 05:06 47.93201 3.04463 35003 ft 426 kts 131°
2026-05-09 05:06 47.89413 3.11120 35009 ft 423 kts 131°
2026-05-09 05:07 47.85594 3.17810 35013 ft 424 kts 131°
2026-05-09 05:07 47.81767 3.24496 35007 ft 425 kts 131°
2026-05-09 05:08 47.77933 3.31180 35006 ft 425 kts 131°
2026-05-09 05:08 47.74091 3.37861 34996 ft 425 kts 131°
2026-05-09 05:09 47.70263 3.44500 35010 ft 426 kts 131°
2026-05-09 05:09 47.66403 3.51180 35010 ft 427 kts 131°
2026-05-09 05:10 47.62529 3.57867 35013 ft 428 kts 131°
2026-05-09 05:10 47.58647 3.64552 35014 ft 428 kts 131°
2026-05-09 05:11 47.54781 3.71192 35016 ft 428 kts 131°
2026-05-09 05:11 47.50888 3.77862 35020 ft 428 kts 131°
2026-05-09 05:12 47.46991 3.84523 35018 ft 428 kts 131°
2026-05-09 05:12 47.43097 3.91160 35018 ft 427 kts 132°
2026-05-09 05:13 47.39233 3.97732 35020 ft 426 kts 132°
2026-05-09 05:13 47.35348 4.04324 35018 ft 425 kts 132°
2026-05-09 05:14 47.31465 4.10894 35024 ft 425 kts 132°
2026-05-09 05:14 47.27579 4.17457 35015 ft 425 kts 132°
2026-05-09 05:15 47.23709 4.23974 35027 ft 426 kts 132°
2026-05-09 05:15 47.19802 4.30538 35034 ft 427 kts 132°
2026-05-09 05:16 47.15879 4.37113 35033 ft 428 kts 132°
2026-05-09 05:16 47.11942 4.43695 35030 ft 429 kts 132°
2026-05-09 05:17 47.08022 4.50235 35034 ft 430 kts 133°
2026-05-09 05:17 47.04060 4.56828 35033 ft 431 kts 133°
2026-05-09 05:18 47.00089 4.63418 35035 ft 432 kts 133°
2026-05-09 05:18 46.96106 4.70014 35033 ft 433 kts 133°
2026-05-09 05:19 46.92116 4.76604 35041 ft 433 kts 133°
2026-05-09 05:19 46.88142 4.83153 35041 ft 433 kts 133°
2026-05-09 05:20 46.84138 4.89735 35032 ft 434 kts 134°
2026-05-09 05:20 46.80115 4.96333 35051 ft 435 kts 134°
2026-05-09 05:21 46.76078 5.02938 35038 ft 437 kts 134°
2026-05-09 05:21 46.72045 5.09524 35045 ft 439 kts 134°
2026-05-09 05:22 46.68168 5.16395 35033 ft 442 kts 123°
2026-05-09 05:22 46.65786 5.24663 35040 ft 447 kts 104°
2026-05-09 05:23 46.64497 5.33530 35039 ft 448 kts 103°
2026-05-09 05:23 46.63259 5.42413 35052 ft 448 kts 103°
2026-05-09 05:24 46.61989 5.51227 35070 ft 448 kts 103°
2026-05-09 05:24 46.60679 5.60084 35065 ft 448 kts 104°
2026-05-09 05:25 46.59352 5.68935 35069 ft 448 kts 104°
2026-05-09 05:25 46.57353 5.82180 35095 ft 447 kts 104°
2026-05-09 05:26 46.56020 5.90957 35092 ft 448 kts 104°
2026-05-09 05:26 46.54673 5.99779 35099 ft 447 kts 104°
2026-05-09 05:27 46.53319 6.08597 35088 ft 448 kts 104°
2026-05-09 05:27 46.51957 6.17424 35100 ft 448 kts 104°
2026-05-09 05:28 46.50595 6.26199 35093 ft 449 kts 104°
2026-05-09 05:28 46.49215 6.35038 35093 ft 449 kts 104°
2026-05-09 05:29 46.47827 6.43882 35101 ft 450 kts 104°
2026-05-09 05:29 46.46429 6.52745 35088 ft 451 kts 104°
2026-05-09 05:30 46.45023 6.61608 35089 ft 451 kts 104°
2026-05-09 05:30 46.43617 6.70427 35088 ft 452 kts 105°
2026-05-09 05:31 46.42193 6.79306 35087 ft 453 kts 105°
2026-05-09 05:31 46.40761 6.88192 35081 ft 453 kts 105°
2026-05-09 05:32 46.39320 6.97088 35105 ft 454 kts 105°
2026-05-09 05:32 46.37877 7.05941 35102 ft 455 kts 105°
2026-05-09 05:33 46.36416 7.14865 35116 ft 456 kts 105°
2026-05-09 05:33 46.34957 7.23734 34976 ft 446 kts 105°
2026-05-09 05:34 46.34243 7.28062 34702 ft 437 kts 105°
2026-05-09 05:34 46.33540 7.32306 34330 ft 432 kts 105°
2026-05-09 05:34 46.32841 7.36516 33919 ft 428 kts 105°
2026-05-09 05:34 46.32147 7.40681 33509 ft 424 kts 105°
2026-05-09 05:35 46.31467 7.44754 33120 ft 420 kts 105°
2026-05-09 05:35 46.30785 7.48832 32742 ft 416 kts 105°
2026-05-09 05:35 46.30105 7.52886 32332 ft 412 kts 105°
2026-05-09 05:35 46.29432 7.56891 31974 ft 408 kts 105°
2026-05-09 05:36 46.28764 7.60857 31613 ft 405 kts 106°
2026-05-09 05:36 46.28099 7.64792 31261 ft 401 kts 106°
2026-05-09 05:36 46.27440 7.68688 30902 ft 398 kts 106°
2026-05-09 05:36 46.26784 7.72552 30576 ft 394 kts 106°
2026-05-09 05:37 46.26143 7.76327 30223 ft 391 kts 106°
2026-05-09 05:37 46.25495 7.80129 29830 ft 388 kts 106°
2026-05-09 05:37 46.24851 7.83900 29445 ft 384 kts 106°
2026-05-09 05:37 46.24213 7.87631 29065 ft 381 kts 106°
2026-05-09 05:38 46.23580 7.91326 28740 ft 378 kts 106°
2026-05-09 05:38 46.22948 7.95001 28350 ft 376 kts 106°
2026-05-09 05:38 46.22315 7.98674 28011 ft 375 kts 106°
2026-05-09 05:38 46.21678 8.02358 27635 ft 384 kts 107°
2026-05-09 05:39 46.21020 8.06149 27310 ft 394 kts 107°
2026-05-09 05:39 46.20364 8.09933 26916 ft 393 kts 107°
2026-05-09 05:39 46.19704 8.13740 26535 ft 390 kts 107°
2026-05-09 05:39 46.19047 8.17518 26166 ft 386 kts 107°
2026-05-09 05:40 46.18395 8.21263 25796 ft 383 kts 107°
2026-05-09 05:40 46.17748 8.24973 25439 ft 380 kts 107°
2026-05-09 05:40 46.17110 8.28644 25038 ft 375 kts 107°
2026-05-09 05:40 46.16483 8.32269 24739 ft 370 kts 107°
2026-05-09 05:41 46.15849 8.35854 24380 ft 369 kts 107°
2026-05-09 05:41 46.15222 8.39383 24034 ft 368 kts 107°
2026-05-09 05:41 46.14589 8.42951 23658 ft 367 kts 107°
2026-05-09 05:41 46.13958 8.46508 23261 ft 365 kts 107°
2026-05-09 05:42 46.13332 8.50039 22889 ft 362 kts 107°
2026-05-09 05:42 46.12709 8.53546 22528 ft 360 kts 107°
2026-05-09 05:42 46.12091 8.57027 22180 ft 357 kts 107°
2026-05-09 05:42 46.11477 8.60476 21841 ft 354 kts 107°
2026-05-09 05:43 46.10865 8.63899 21497 ft 351 kts 107°
2026-05-09 05:43 46.10181 8.67209 21154 ft 347 kts 116°
2026-05-09 05:43 46.09055 8.70242 20839 ft 341 kts 123°
2026-05-09 05:43 46.07839 8.73149 20509 ft 338 kts 124°
2026-05-09 05:44 46.06612 8.76025 20168 ft 337 kts 124°
2026-05-09 05:44 46.05392 8.78899 19845 ft 335 kts 124°
2026-05-09 05:44 46.04190 8.81756 19519 ft 333 kts 123°
2026-05-09 05:44 46.03002 8.84604 19196 ft 331 kts 123°
2026-05-09 05:45 46.01827 8.87436 18875 ft 329 kts 123°
2026-05-09 05:45 46.00659 8.90260 18549 ft 327 kts 123°
2026-05-09 05:45 45.99499 8.93069 18201 ft 326 kts 122°
2026-05-09 05:45 45.98345 8.95864 17859 ft 324 kts 122°
2026-05-09 05:46 45.97215 8.98600 17530 ft 322 kts 122°
2026-05-09 05:46 45.96077 9.01356 17200 ft 320 kts 122°
2026-05-09 05:46 45.94945 9.04094 16874 ft 317 kts 122°
2026-05-09 05:46 45.93822 9.06804 16554 ft 314 kts 122°
2026-05-09 05:47 45.92710 9.09488 16253 ft 312 kts 122°
2026-05-09 05:47 45.91605 9.12154 15942 ft 310 kts 122°
2026-05-09 05:47 45.90503 9.14807 15629 ft 309 kts 122°
2026-05-09 05:47 45.89408 9.17445 15329 ft 307 kts 122°
2026-05-09 05:48 45.88319 9.20064 15028 ft 305 kts 122°
2026-05-09 05:48 45.87248 9.22636 14717 ft 303 kts 121°
2026-05-09 05:48 45.86170 9.25223 14421 ft 301 kts 121°
2026-05-09 05:48 45.85098 9.27797 14121 ft 300 kts 121°
2026-05-09 05:49 45.84028 9.30361 13811 ft 299 kts 121°
2026-05-09 05:49 45.82962 9.32913 13458 ft 297 kts 121°
2026-05-09 05:49 45.81904 9.35442 13154 ft 295 kts 121°
2026-05-09 05:49 45.80849 9.37959 12806 ft 297 kts 121°
2026-05-09 05:50 45.79776 9.40517 12460 ft 301 kts 121°
2026-05-09 05:50 45.78687 9.43111 12102 ft 305 kts 121°
2026-05-09 05:50 45.77593 9.45713 11742 ft 304 kts 122°
2026-05-09 05:50 45.76519 9.48267 11374 ft 303 kts 121°
2026-05-09 05:51 45.75436 9.50836 11039 ft 300 kts 121°
2026-05-09 05:51 45.74363 9.53385 10745 ft 297 kts 121°
2026-05-09 05:51 45.73301 9.55900 10461 ft 293 kts 121°
2026-05-09 05:51 45.72251 9.58385 10179 ft 290 kts 121°
2026-05-09 05:52 45.71210 9.60849 9894 ft 287 kts 121°
2026-05-09 05:52 45.70181 9.63281 9587 ft 285 kts 122°
2026-05-09 05:52 45.69161 9.65689 9298 ft 281 kts 121°
2026-05-09 05:52 45.68164 9.68038 9024 ft 278 kts 121°
2026-05-09 05:53 45.67169 9.70390 8751 ft 275 kts 120°
2026-05-09 05:53 45.66428 9.72892 8481 ft 273 kts 107°
2026-05-09 05:53 45.65925 9.75507 8152 ft 273 kts 104°
2026-05-09 05:53 45.65460 9.78130 7870 ft 271 kts 104°
2026-05-09 05:54 45.64991 9.80736 7604 ft 270 kts 105°
2026-05-09 05:54 45.64507 9.83373 7459 ft 267 kts 105°
2026-05-09 05:54 45.64044 9.85829 7314 ft 245 kts 106°
2026-05-09 05:54 45.63618 9.88060 7172 ft 227 kts 106°
2026-05-09 05:55 45.63214 9.90156 7069 ft 212 kts 106°
2026-05-09 05:55 45.62810 9.92245 6554 ft 220 kts 107°
2026-05-09 05:55 45.62401 9.94339 6225 ft 217 kts 106°
2026-05-09 05:55 45.62001 9.96389 5983 ft 210 kts 106°
2026-05-09 05:56 45.61614 9.98372 5755 ft 204 kts 106°
2026-05-09 05:56 45.61237 10.00302 5556 ft 200 kts 106°
2026-05-09 05:56 45.61117 10.02265 5332 ft 201 kts 75°
2026-05-09 05:56 45.61875 10.03888 5171 ft 199 kts 35°
2026-05-09 05:57 45.63118 10.04501 4983 ft 190 kts 359°
2026-05-09 05:57 45.64342 10.03976 4805 ft 183 kts 323°
2026-05-09 05:57 45.65141 10.02620 4607 ft 180 kts 289°
2026-05-09 05:57 45.65052 10.00897 4469 ft 176 kts 249°
2026-05-09 05:58 45.64630 9.99242 4276 ft 178 kts 251°
2026-05-09 05:58 45.64222 9.97565 4085 ft 179 kts 251°
2026-05-09 05:58 45.63803 9.95901 3994 ft 177 kts 246°
2026-05-09 05:58 45.63080 9.94491 3965 ft 180 kts 221°
2026-05-09 05:59 45.62470 9.93646 3737 ft 187 kts 234°
2026-05-09 05:59 45.62329 9.91405 3504 ft 177 kts 298°
2026-05-09 05:59 45.63004 9.89976 3276 ft 171 kts 294°
2026-05-09 05:59 45.63413 9.88415 3065 ft 165 kts 290°
2026-05-09 06:00 45.63780 9.86917 2857 ft 155 kts 287°
2026-05-09 06:00 45.63975 9.85959 2759 ft 150 kts 285°
2026-05-09 06:00 45.64247 9.84519 2536 ft 150 kts 284°
2026-05-09 06:00 45.64508 9.83099 2328 ft 147 kts 284°
2026-05-09 06:01 45.64767 9.81688 2138 ft 147 kts 285°
2026-05-09 06:01 45.65028 9.80262 1938 ft 149 kts 285°
2026-05-09 06:01 45.65374 9.78373 1666 ft 148 kts 286°
2026-05-09 06:01 45.65630 9.76973 1541 ft 142 kts 285°
2026-05-09 06:02 45.65866 9.75635 1383 ft 139 kts 285°
2026-05-09 06:02 45.66024 9.74747 1191 ft 137 kts 285°
2026-05-09 06:02 45.66260 9.73469 996 ft 128 kts 286°
2026-05-09 06:02 45.66482 9.72316 816 ft 115 kts 287°
2026-05-09 06:03 45.66672 9.71299 787 ft 91 kts 285°
2026-05-09 06:03 45.66791 9.70639 786 ft 47 kts 284°
2026-05-09 06:03 45.66871 9.70214 786 ft 19 kts 285°
2026-05-09 06:03 45.66886 9.70033 786 ft 18 kts 260°
2026-05-09 06:04 45.66853 9.69923 786 ft 18 kts 240°
2026-05-09 06:04 45.66775 9.69826 786 ft 15 kts 177°
2026-05-09 06:04 45.66691 9.69803 786 ft 3 kts 195°
2026-05-09 06:04 45.66684 9.69800 786 ft 0 kts 195°